Home > Time Zones > World Clock > Weather > Yemen > Sana > Past weeks

Flag for Yemen Weather past 2 weeks in Sana, Yemen

Now
66 °F

Sunny.


Feels Like: 66 °F
Forecast: 57 / 80 °F
Wind: 6 mph from Southwest

Location: Sana'A Airport

Current Time: Aug 2, 2014 at 8:53:43 AM

Latest Report: Aug 2, 2014 at 8:00 AM


Visibility: 10 mi

Pressure: 30.21 "Hg

Humidity: 60%

Dew point: 52 °F

Location of SanaLocation

Historic Weather in Sana — Graph

°F

Sana temperature yesterday

Maximum temperature yesterday: 79 °F (at 12:00 PM)
Minimum temperature yesterday: 59 °F (at 6:00 AM)
Average temperature yesterday: 67 °F

Past Weeks' High & Low Weather Summary

 TemperatureHumidityPressure
High88 °F (Jul 18, 3:00 PM)88% (Jul 30, 7:00 PM)30.33 "Hg (Jul 30, 7:00 PM)
Low59 °F (Jul 26, 5:00 AM)11% (Jul 18, 3:00 PM)30.09 "Hg (Jul 18, 4:00 PM)
Average73 °F41%30.21 "Hg
* Reported Jul 18 8:00 AM — Aug 2 8:00 AM, Sana, Weather by CustomWeather, © 2014

Note: Actual official high and low records may vary slightly from our data, if they occured in-between our weather recording intervals... More about our weather records

Advertising

Sana weather history for previous 24 hours

 ConditionsComfort  
Time TempWeatherWind HumidityBarometerVisibility
8:00 AM
Aug 2
66 °FSunny.6 mph60%30.21 "Hg10 mi
7:00 AM59 °FPassing clouds.1 mph88%30.18 "HgN/A
6:00 AM59 °FPassing clouds.3 mph82%30.18 "HgN/A
5:00 AM59 °FPassing clouds.5 mph82%30.18 "HgN/A
4:00 AM61 °FPassing clouds.3 mph83%30.18 "HgN/A
3:00 AM61 °FPassing clouds.6 mph77%30.18 "HgN/A
2:00 AM63 °FPassing clouds.1 mph64%30.18 "HgN/A
1:00 AM63 °FPassing clouds.2 mph73%30.21 "HgN/A
12:00 AM63 °FPassing clouds.2 mph73%30.21 "HgN/A
11:00 PM
Aug 1
64 °FPassing clouds.6 mph68%30.24 "HgN/A
10:00 PM64 °FPassing clouds.15 mph78%30.24 "HgN/A
9:00 PM61 °FThunderstorms. Passing clouds.7 mph77%30.27 "Hg5 mi
8:00 PM68 °FPassing clouds.8 mph56%30.21 "HgN/A
7:00 PM68 °FThunderstorms. Passing clouds.13 mph56%30.21 "HgN/A
6:00 PM72 °FThunderstorms. Partly sunny.14 mph50%30.15 "HgN/A
5:00 PM77 °FThunderstorms. Partly sunny.16 mph44%30.12 "Hg4 mi
4:00 PM79 °FScattered clouds.5 mph30%30.12 "HgN/A
1:00 PM75 °FThunderstorms. Scattered clouds.24 mph41%30.18 "Hg5 mi
12:00 PM79 °FScattered clouds.5 mph39%30.18 "Hg5 mi
11:00 AM77 °FScattered clouds.6 mph47%30.21 "Hg5 mi
10:00 AM73 °FScattered clouds.5 mph57%30.24 "Hg5 mi
9:00 AM70 °FPartly sunny.2 mph60%30.27 "Hg5 mi
8:00 AM66 °FScattered clouds.6 mph64%30.24 "Hg5 mi
Weather by CustomWeather, © 2014

See weather overviewHow to use our weather pages